Change the Weather History Date:

Wednesday, May 7, 2014

  Actual Average Record
Temperature  
Mean Temperature 48 °F -  
Max Temperature 60 °F 60 °F 82 °F (2013)
Min Temperature 35 °F 37 °F 30 °F (2002)
Degree Days  
Heating Degree Days 18    
Moisture  
Dew Point 32 °F    
Average Humidity 57    
Maximum Humidity 87    
Minimum Humidity 30    
Precipitation  
Precipitation 0.00 in - - ()
Sea Level Pressure  
Sea Level Pressure 29.90 in    
Wind  
Wind Speed 4 mph (ESE)    
Max Wind Speed 7 mph    
Max Gust Speed -    
Visibility 10 miles    
Events      
Averages and records for this station are not official NWS values.
T = Trace of Precipitation, MM = Missing Value Source: NWS Daily Summary

Daily Weather History Graph

Daily Weather History Graph

Search for Another Location

Airport or City:

Trip Planner

Search our weather history database for the weather conditions in past years. The results will help you decide how hot, cold, wet, or windy it might be!

Date:

Astronomy

May. 07, 2014 Rise Set
Actual Time 5:24 AM PDT 8:11 PM PDT
Civil Twilight 4:48 AM PDT 8:46 PM PDT
Nautical Twilight 4:03 AM PDT 9:31 PM PDT
Astronomical Twilight 3:10 AM PDT 10:25 PM PDT
Moon 12:51 PM PDT (5/7) 1:56 AM PDT (5/7)
Length of Visible Light 15h 57m
Length of Day
14h 47m
First Quarter, 56% of the Moon is Illuminated
May 7
First Quarter
May 14
Full
May 21
Last Quarter
May 28
New
Jun 5
First Quarter

Hourly Weather History & Observations

Time (PDT) Temp. Windchill Dew Point Humidity Pressure Visibility Wind Dir Wind Speed Gust Speed Precip Events Conditions
12:58 AM 41.5 °F 38.6 °F 33.6 °F 73% 29.90 in 10.0 mi Variable 4.6 mph - N/A   Mostly Cloudy
1:27 AM 39.2 °F 35.9 °F 33.8 °F 81% 29.88 in 10.0 mi NNW 4.6 mph - N/A   Partly Cloudy
1:34 AM 39.2 °F 35.9 °F 32.0 °F 75% 29.88 in 10.0 mi NW 4.6 mph - N/A   Clear
1:58 AM 40.1 °F - 32.9 °F 75% 29.90 in 10.0 mi ENE 1.2 mph - 0.00 in   Clear
2:58 AM 40.8 °F - 32.5 °F 72% 29.90 in 10.0 mi NNW 2.3 mph - 0.00 in   Clear
3:58 AM 37.2 °F 33.6 °F 31.6 °F 80% 29.91 in 10.0 mi NE 4.6 mph - 0.00 in   Clear
4:58 AM 39.7 °F 37.6 °F 32.4 °F 75% 29.91 in 10.0 mi East 3.5 mph - N/A   Clear
5:47 AM 37.4 °F 33.8 °F 32.0 °F 81% 29.89 in 10.0 mi ESE 4.6 mph - N/A   Partly Cloudy
5:56 AM 35.6 °F 32.8 °F 32.0 °F 87% 29.90 in 10.0 mi ESE 3.5 mph - N/A   Clear
5:59 AM 35.8 °F 33.0 °F 32.2 °F 87% 29.92 in 10.0 mi East 3.5 mph - 0.00 in   Clear
6:58 AM 40.6 °F 38.6 °F 35.6 °F 82% 29.93 in 10.0 mi North 3.5 mph - 0.00 in   Partly Cloudy
7:58 AM 45.7 °F 42.7 °F 36.3 °F 70% 29.94 in 10.0 mi East 5.8 mph - N/A   Clear
8:58 AM 48.7 °F - 35.4 °F 60% 29.94 in 10.0 mi ENE 6.9 mph - N/A   Clear
9:58 AM 51.1 °F - 34.3 °F 53% 29.94 in 10.0 mi Variable 2.3 mph - N/A   Clear
10:58 AM 53.2 °F - 34.2 °F 48% 29.94 in 10.0 mi Variable 1.2 mph - N/A   Clear
11:58 AM 56.1 °F - 32.5 °F 41% 29.92 in 10.0 mi Variable 5.8 mph - N/A   Clear
12:58 PM 56.3 °F - 27.7 °F 33% 29.91 in 10.0 mi Variable 2.3 mph - N/A   Clear
1:58 PM 59.2 °F - 27.7 °F 30% 29.90 in 10.0 mi Variable 1.2 mph - N/A   Mostly Cloudy
2:58 PM 60.1 °F - 28.8 °F 30% 29.90 in 10.0 mi WNW 6.9 mph - N/A   Scattered Clouds
3:58 PM 59.4 °F - 28.2 °F 31% 29.89 in 10.0 mi South 2.3 mph - N/A   Partly Cloudy
4:58 PM 60.8 °F - 29.7 °F 31% 29.88 in 10.0 mi Variable 6.9 mph - N/A   Partly Cloudy
5:58 PM 58.6 °F - 27.0 °F 30% 29.87 in 10.0 mi South 6.9 mph - N/A   Clear
6:58 PM 59.4 °F - 28.4 °F 31% 29.87 in 10.0 mi SSE 4.6 mph - N/A   Clear
7:58 PM 53.8 °F - 30.0 °F 40% 29.87 in 10.0 mi South 5.8 mph - N/A   Clear
8:58 PM 51.6 °F - 30.6 °F 45% 29.87 in 10.0 mi South 5.8 mph - N/A   Clear
9:58 PM 48.6 °F - 30.7 °F 50% 29.87 in 10.0 mi South 5.8 mph - N/A   Clear
10:58 PM 47.1 °F - 30.2 °F 52% 29.87 in 10.0 mi South 5.8 mph - N/A   Clear
11:58 PM 47.7 °F - 30.0 °F 50% 29.86 in 10.0 mi WSW 2.3 mph - N/A   Partly Cloudy